Flag for Brazil Weather past 2 weeks in São Luis, Maranhão, Brazil

Now
91 °F

Partly sunny.


Feels Like: 96 °F
Forecast: 79 / 91 °F
Wind: 17 mph from Northeast

Location: Sao Luiz Aeroporto

Current Time: Dec 21, 2014 at 12:39:09 PM

Latest Report: Dec 21, 2014 at 12:00 PM


Visibility: N/A

Pressure: 29.86 "Hg

Humidity: 46%

Dew point: 68 °F

Location of São LuisLocation

Historic Weather in São Luis — Graph

°F

São Luis temperature yesterday

Maximum temperature yesterday: 90 °F (at 11:00 AM)
Minimum temperature yesterday: 79 °F (at 2:00 AM)
Average temperature yesterday: 84 °F

Past Weeks' High & Low Weather Summary

 TemperatureHumidityPressure
High91 °F (Dec 11, 12:00 PM)79% (Dec 8, 1:00 AM)29.92 "Hg (Dec 8, 1:00 AM)
Low77 °F (Dec 13, 5:00 AM)44% (Dec 11, 12:00 PM)29.74 "Hg (Dec 9, 3:00 PM)
Average83 °F64%29.84 "Hg
* Reported Dec 6 11:00 AM — Dec 21 11:00 AM, São Luis, Weather by CustomWeather, © 2014

Note: Actual official high and low records may vary slightly from our data, if they occured in-between our weather recording intervals... More about our weather records

Advertising

São Luis weather history for previous 24 hours

 ConditionsComfort  
Time TempWeatherWind HumidityBarometerVisibility
11:00 AM
Dec 21
90 °FScattered clouds.18 mph49%29.89 "HgN/A
10:00 AM88 °FScattered clouds.16 mph52%29.89 "HgN/A
9:00 AM84 °FScattered clouds.14 mph62%29.89 "HgN/A
8:00 AM82 °FScattered clouds.18 mph66%29.89 "HgN/A
7:00 AM82 °FPassing clouds.12 mph66%29.86 "HgN/A
6:00 AM81 °FPassing clouds.9 mph70%29.86 "HgN/A
5:00 AM81 °FClear.12 mph70%29.83 "Hg10 mi
4:00 AM79 °FClear.8 mph79%29.83 "Hg10 mi
3:00 AM81 °FClear.9 mph74%29.83 "Hg10 mi
2:00 AM81 °FClear.9 mph74%29.83 "Hg10 mi
1:00 AM81 °FClear.10 mph74%29.86 "Hg10 mi
12:00 AM81 °FClear.12 mph74%29.89 "Hg10 mi
11:00 PM
Dec 20
81 °FClear.10 mph74%29.89 "Hg10 mi
10:00 PM81 °FClear.10 mph74%29.89 "Hg10 mi
9:00 PM82 °FClear.10 mph66%29.86 "Hg10 mi
8:00 PM82 °FClear.12 mph66%29.83 "Hg10 mi
7:00 PM82 °FClear.12 mph66%29.83 "Hg10 mi
6:00 PM84 °FPassing clouds.17 mph62%29.80 "HgN/A
5:00 PM88 °FPassing clouds.15 mph52%29.80 "HgN/A
4:00 PM90 °FPassing clouds.23 mph49%29.80 "HgN/A
3:00 PM90 °FPassing clouds.25 mph46%29.80 "HgN/A
2:00 PM90 °FScattered clouds.17 mph49%29.83 "HgN/A
1:00 PM90 °FScattered clouds.17 mph49%29.86 "HgN/A
12:00 PM90 °FScattered clouds.21 mph49%29.89 "HgN/A
Weather by CustomWeather, © 2014

See weather overviewHow to use our weather pages